Rochester, Indiana, United States (46975)
Lat: 41.06N, Lon: 86.22W
Wx Zone: INZ015
Local Info
Past Weather Observations for Today

NOTE: This archive is for the closest National Weather Service station to Rochester. Information may differ from the station used for current weather conditions.

Click here for Long-term Archive

Time Weather Temperature Dewpoint Humidity Pressure Winds Precip Visibility
11:35
Overcast
23°F / -5°C 14°F / -10°C 68% 30.48 in
(1032 mb)
N 10.4 mph
(N 17 kph)
- 10SM
11:15
Overcast
23°F / -5°C 14°F / -10°C 68% 30.48 in
(1032 mb)
N 8.1 mph
(N 13 kph)
- 10SM
10:55
Overcast
23°F / -5°C 14°F / -10°C 68% 30.48 in
(1032 mb)
N 8.1 mph
(N 13 kph)
- 10SM
10:35
Overcast
Light Snow
23°F / -5°C 14°F / -10°C 68% 30.48 in
(1032 mb)
N 8.1 mph
(N 13 kph)
- 10SM
10:15
Overcast
Light Snow
23°F / -5°C 14°F / -10°C 68% 30.45 in
(1031 mb)
N 11.5 mph
(N 19 kph)
- 10SM
09:55
Overcast
Light Snow
23°F / -5°C 14°F / -10°C 68% 30.45 in
(1031 mb)
N 11.5 mph
(N 19 kph)
- 10SM
09:35
Overcast
23°F / -5°C 14°F / -10°C 68% 30.45 in
(1031 mb)
N 9.2 mph
(N 15 kph)
- 10SM
09:15
Overcast
23°F / -5°C 14°F / -10°C 68% 30.45 in
(1031 mb)
N 11.5 mph
(N 19 kph)
- 10SM
08:55
Overcast
Light Snow
23°F / -5°C 14°F / -10°C 68% 30.42 in
(1030 mb)
N 13.8 mph
(N 22 kph)
- 10SM
08:35
Overcast
23°F / -5°C 14°F / -10°C 68% 30.42 in
(1030 mb)
NNW 6.9 mph
(NNW 11 kph)
- 10SM
08:15
Overcast
23°F / -5°C 16°F / -9°C 74% 30.42 in
(1030 mb)
N 5.8 mph
(N 9 kph)
- 10SM
07:55
Overcast
23°F / -5°C 16°F / -9°C 74% 30.42 in
(1030 mb)
NNW 8.1 mph
(NNW 13 kph)
- 10SM
07:35
Overcast
23°F / -5°C 16°F / -9°C 74% 30.39 in
(1029 mb)
NNW 10.4 mph
(NNW 17 kph)
- 10SM
07:15
Overcast
23°F / -5°C 16°F / -9°C 74% 30.39 in
(1029 mb)
N 16.1 mph
(N 26 kph)
- 10SM
06:55
Overcast
Light Snow
23°F / -5°C 18°F / -8°C 80% 30.36 in
(1028 mb)
NNW 8.1 mph
(NNW 13 kph)
- 10SM
06:35
Overcast
23°F / -5°C 16°F / -9°C 74% 30.36 in
(1028 mb)
NNW 8.1 mph
(NNW 13 kph)
- 10SM
06:15
Mostly Cloudy
23°F / -5°C 16°F / -9°C 74% 30.36 in
(1028 mb)
NNW 5.8 mph
(NNW 9 kph)
- 10SM
05:55
Partly Cloudy
23°F / -5°C 16°F / -9°C 74% 30.36 in
(1028 mb)
N 9.2 mph
(N 15 kph)
- 10SM
05:35
Mostly Cloudy
23°F / -5°C 18°F / -8°C 80% 30.33 in
(1027 mb)
N 10.4 mph
(N 17 kph)
- 10SM
05:15
Overcast
Light Snow
23°F / -5°C 19°F / -7°C 86% 30.33 in
(1027 mb)
NNW 12.7 mph
(NNW 20 kph)
- 10SM
04:55
Overcast
Light Snow
25°F / -4°C 19°F / -7°C 80% 30.33 in
(1027 mb)
NNW 12.7 mph
(NNW 20 kph)
- 7SM
04:35
Overcast
27°F / -3°C 18°F / -8°C 69% 30.3 in
(1026 mb)
NNW 13.8 mph
(NNW 22 kph)
- 10SM
04:15
Mostly Cloudy
25°F / -4°C 18°F / -8°C 74% 30.3 in
(1026 mb)
NNW 12.7 mph
(NNW 20 kph)
- 10SM
03:55
Partly Cloudy
25°F / -4°C 18°F / -8°C 74% 30.3 in
(1026 mb)
NNW 11.5 mph
(NNW 19 kph)
- 10SM
03:35
Overcast
27°F / -3°C 18°F / -8°C 69% 30.27 in
(1025 mb)
NNW 11.5 mph
(NNW 19 kph)
- 10SM
03:15
Mostly Cloudy
27°F / -3°C 18°F / -8°C 69% 30.27 in
(1025 mb)
NNW 11.5 mph
(NNW 19 kph)
- 10SM
02:55
Overcast
27°F / -3°C 18°F / -8°C 69% 30.27 in
(1025 mb)
NNW 11.5 mph
(NNW 19 kph)
- 10SM
02:35
Overcast
28°F / -2°C 19°F / -7°C 69% 30.24 in
(1024 mb)
NNW 16.1 mph
(NNW 26 kph)
- 10SM
02:15
Overcast
Unknown Precip
28°F / -2°C 21°F / -6°C 74% 30.24 in
(1024 mb)
N 17.3 mph
(N 28 kph)
- 10SM
01:55
Overcast
Light Snow
28°F / -2°C 21°F / -6°C 74% 30.21 in
(1023 mb)
N 23 mph
(N 37 kph)
- 10SM
01:35
Overcast
30°F / -1°C 23°F / -5°C 75% 30.21 in
(1023 mb)
NNW 13.8 mph
(NNW 22 kph)
- 10SM
01:15
Overcast
30°F / -1°C 23°F / -5°C 75% 30.21 in
(1023 mb)
NNW 13.8 mph
(NNW 22 kph)
- 10SM
00:55
Overcast
30°F / -1°C 25°F / -4°C 80% 30.21 in
(1023 mb)
NNW 11.5 mph
(NNW 19 kph)
- 10SM
00:35
Overcast
Unknown Precip
32°F / 0°C 27°F / -3°C 80% 30.18 in
(1022 mb)
NNW 12.7 mph
(NNW 20 kph)
- 10SM
00:15
Overcast
Light Rain
32°F / 0°C 27°F / -3°C 80% 30.18 in
(1022 mb)
NW 16.1 mph
(NW 26 kph)
- 10SM
Time Weather Temperature Dewpoint Humidity Pressure Winds Precip Visibility


Weather for websites

WeatherForYou.com, LLC is not responsible for any damages or problems caused by this service. Current weather conditions are obtained from the closest station including government and personal stations which may have varying degrees of accuracy. Weather forecasts are derived from the NOAA NDFD. Like all things, this site belongs to Jesus Christ... He just trusts me to maintain it. If you have any questions or comments email webmaster@weatherforyou.com

Copyright © 2015, WeatherForYou.com LLC. All rights reserved.